This is the latest recevied weather packets stored in our database for station/object IZ5TJI-3. If no packets are shown the sender has not sent any weather packets the latest 10 day(s).
| Time | Temp. | Humidity | Pressure | Rain* | Wind** | Luminosity | Snow |
|---|---|---|---|---|---|---|---|
| 1777136437 | 18.89° C | 42% | 1014.9 hPa | 0 mm | - | - | - |
| 1777135537 | 18.89° C | 39% | 1014.9 hPa | 0 mm | - | - | - |
| 1777134637 | 19.44° C | 35% | 1014.8 hPa | 0 mm | - | - | - |
| 1777133737 | 19.44° C | 32% | 1014.8 hPa | 0 mm | - | - | - |
| 1777132837 | 20° C | 36% | 1014.7 hPa | 0 mm | - | - | - |
| 1777131937 | 20° C | 33% | 1014.8 hPa | 0 mm | - | - | - |
| 1777131037 | 20.56° C | 32% | 1014.9 hPa | 0 mm | - | - | - |
| 1777130137 | 20.56° C | 33% | 1014.8 hPa | 0 mm | - | - | - |
| 1777129237 | 21.11° C | 34% | 1014.8 hPa | 0 mm | - | - | - |
| 1777128338 | 21.11° C | 33% | 1014.7 hPa | 0 mm | - | - | - |
| 1777127438 | 21.11° C | 33% | 1014.8 hPa | 0 mm | - | - | - |
| 1777126538 | 21.67° C | 29% | 1014.8 hPa | 0 mm | - | - | - |
| 1777125638 | 21.67° C | 29% | 1014.8 hPa | 0 mm | - | - | - |
| 1777124738 | 21.67° C | 30% | 1014.9 hPa | 0 mm | - | - | - |
| 1777123838 | 21.67° C | 31% | 1015.1 hPa | 0 mm | - | - | - |
| 1777122938 | 21.67° C | 32% | 1015.2 hPa | 0 mm | - | - | - |
| 1777122038 | 21.67° C | 33% | 1015.5 hPa | 0 mm | - | - | - |
| 1777121138 | 21.67° C | 32% | 1015.6 hPa | 0 mm | - | - | - |
| 1777120238 | 21.67° C | 34% | 1015.5 hPa | 0 mm | - | - | - |
| 1777119338 | 21.67° C | 34% | 1015.7 hPa | 0 mm | - | - | - |
| 1777118438 | 21.11° C | 37% | 1015.8 hPa | 0 mm | - | - | - |
| 1777117538 | 21.11° C | 40% | 1015.9 hPa | 0 mm | - | - | - |
| 1777116638 | 20.56° C | 45% | 1016 hPa | 0 mm | - | - | - |
| 1777115738 | 20.56° C | 49% | 1016 hPa | 0 mm | - | - | - |
| 1777114838 | 20° C | 51% | 1016.4 hPa | 0 mm | - | - | - |
* Rain latest hour (hover to see other rain measurements)
** Current wind speed in m/s (hover to see current wind gust speed)